Printer-friendly version

IAU Minor Planet Center

Minor Planet Center

MPEC 2006-B51 : 2006 BZ8

The following Minor Planet Electronic Circular may be linked-to from your own Web pages, but must not otherwise be redistributed electronically.


Read MPEC 2006-B50 Read MPEC 2006-B52


M.P.E.C. 2006-B51                                Issued 2006 Jan. 25, 03:36 UT

     The Minor Planet Electronic Circulars contain information on unusual
         minor planets and routine data on comets.  They are published
   on behalf of Commission 20 of the International Astronomical Union by the
          Minor Planet Center, Smithsonian Astrophysical Observatory,
                          Cambridge, MA 02138, U.S.A.

                  Supported in part by the Brinson Foundation
                  Supported in part by the TABASGO Foundation
             Prepared using the Tamkin Foundation Computer Network

                              MPC@CFA.HARVARD.EDU
          URL http://cfa-www.harvard.edu/iau/mpc.html  ISSN 1523-6714

                                   2006 BZ8

Observations:
     K06B08Z* C2006 01 23.43301 12 36 00.37 +02 03 56.5          18.1 V EB051703
     K06B08Z  C2006 01 23.44003 12 35 59.77 +02 04 04.1          18.1 V EB051703
     K06B08Z  C2006 01 23.44708 12 35 59.10 +02 04 12.8          18.5 V EB051703
     K06B08Z  C2006 01 23.45456 12 35 58.46 +02 04 21.7          18.4 V EB051703
     K06B08Z  C2006 01 23.48863 12 35 55.28 +02 05 00.4          18.8 V EB051703
     K06B08Z  C2006 01 23.49699 12 35 54.49 +02 05 10.5          18.7 V EB051703
     K06B08Z  C2006 01 23.50540 12 35 53.80 +02 05 19.2          19.2 V EB051703
     K06B08Z  C2006 01 23.51377 12 35 52.98 +02 05 30.3          19.1 V EB051703
     K06B08Z  C2006 01 24.08498 12 35 00.47 +02 16 36.8          19.4 V EB051198
     K06B08Z  C2006 01 24.08552 12 35 00.42 +02 16 37.5          19.3 V EB051198
     K06B08Z  C2006 01 24.08713 12 35 00.27 +02 16 39.4          19.4 V EB051198
     K06B08Z  C2006 01 24.08929 12 35 00.06 +02 16 42.0          19.4 V EB051198
     K06B08Z  C2006 01 24.08983 12 35 00.01 +02 16 42.6          19.4 V EB051198
     K06B08Z  C2006 01 24.09198 12 34 59.80 +02 16 45.2          19.4 V EB051198
     K06B08Z  C2006 01 24.19833 12 34 49.75 +02 18 50.9                 EB051J95
     K06B08Z  C2006 01 24.20346 12 34 49.19 +02 18 57.1          18.5 R EB051461
     K06B08Z  C2006 01 24.20406 12 34 49.20 +02 18 57.5                 EB051J95
     K06B08Z  C2006 01 24.20495 12 34 49.07 +02 18 58.8                 EB051461
     K06B08Z  C2006 01 24.20645 12 34 48.90 +02 19 00.7                 EB051461
     K06B08Z  C2006 01 24.20796 12 34 48.76 +02 19 02.5                 EB051461
     K06B08Z  C2006 01 24.20946 12 34 48.63 +02 19 04.3                 EB051461
     K06B08Z  C2006 01 24.20979 12 34 48.62 +02 19 04.5          18.5 R EB051J95
     K06B08Z  C2006 01 24.21095 12 34 48.46 +02 19 06.4                 EB051461
     K06B08Z  C2006 01 24.25974 12 34 44.35 +02 20 05.6          18.4 R EB051734
     K06B08Z  C2006 01 24.26672 12 34 43.53 +02 20 13.1          18.7 R EB051734
     K06B08Z  C2006 01 24.27333 12 34 43.07 +02 20 20.5          18.4 R EB051734
     K06B08Z  C2006 01 24.27954 12 34 42.36 +02 20 27.0          18.5 R EB051734
     K06B08Z  C2006 01 25.02799 12 33 30.52 +02 35 29.1          18.4 V EB051A13
     K06B08Z  C2006 01 25.03030 12 33 30.28 +02 35 32.1          18.6 V EB051A13
     K06B08Z  C2006 01 25.03679 12 33 29.64 +02 35 40.4          18.5 V EB051A13
     K06B08Z  C2006 01 25.03865 12 33 29.43 +02 35 41.1          18.4 V EB051A13
     K06B08Z  C2006 01 25.04617 12 33 28.78 +02 35 51.3                 EB051246
     K06B08Z  C2006 01 25.04756 12 33 28.66 +02 35 53.5                 EB051246
     K06B08Z  C2006 01 25.05037 12 33 28.29 +02 35 56.7                 EB051246
     K06B08Z  C2006 01 25.05094 12 33 28.30 +02 35 57.4                 EB051246
     K06B08Z  C2006 01 25.05219 12 33 28.16 +02 35 58.5                 EB051246
     K06B08Z  C2006 01 25.05355 12 33 28.05 +02 35 59.9                 EB051246

Observer details:
198 Wildberg.  Observer R. Apitzsch.  0.35-m f/4.2 reflector + CCD.
246 Klet Observatory-KLENOT.  Observer M. Tichy.  1.06-m KLENOT Telescope
    + CCD.
461 Szeged University, Piszkesteto Stn. (Konkoly).  Observer K. Sarneczky.
    0.60-m Schmidt + CCD.
703 Catalina Sky Survey.  Observer R. Hill.  Measurers E. C. Beshore,
    E. J. Christensen, G. J. Garradd, A. D. Grauer, R. E. Hill, R. A. Kowalski,
    S. M. Larson, R. H. McNaught.  0.68-m Schmidt + CCD.
734 Farpoint Observatory.  Observer D. Tibbets.  Measurer G. Hug.  0.7-m
    reflector + CCD.
A13 Observatoire Naef, Marly.  Observer P. Kocher.  0.5-m f/3.3 Hypergraph
    + CCD.
J95 Great Shefford.  Observer P. Birtwhistle.  0.40-m f/6.0 Schmidt-Cassegrain
    + CCD.

Orbital elements:
2006 BZ8
Epoch 2006 Jan. 5.0 TT = JDT 2453740.5                  MPC
M 343.09234              (2000.0)            P               Q
n   0.08572286     Peri.   93.72042     +0.01874324     +0.99975170
a   5.0941488      Node   182.73492     +0.78744119     -0.00733313
e   0.6623800      Incl.  165.37028     +0.61610475     -0.02104216
P  11.5            H   14.5           G   0.15
From 37 observations 2006 Jan. 23-25.  E-assumed.

Ephemeris:
2006 BZ8                 a,e,i = 5.09, 0.66, 165                 q = 1.7199
Date    TT    R. A. (2000) Decl.     Delta      r     Elong.  Phase     V
2006 01 25    12 33.55   +02 35.0    1.859    2.478   118.0    20.5    18.8
2006 02 04    12 13.17   +06 36.5    1.620    2.413   134.1    17.1    18.4
2006 02 14    11 42.84   +11 59.2    1.429    2.348   152.3    11.3    17.8
2006 02 24    11 01.01   +18 23.6    1.308    2.285   168.1     5.1    17.3
2006 03 06    10 09.69   +24 38.1    1.277    2.224   156.9    10.1    17.4
2006 03 16    09 16.35   +29 15.4    1.336    2.164   135.8    18.7    17.8
2006 03 26    08 29.74   +31 48.5    1.467    2.106   116.1    25.2    18.1
2006 04 05    07 54.13   +32 50.7    1.640    2.051    99.0    28.8    18.4
2006 04 15    07 29.05   +33 05.0    1.833    1.998    84.2    30.0    18.6
2006 04 25    07 12.13   +32 58.8    2.027    1.948    71.1    29.2    18.8

Timothy B. Spahr             (C) Copyright 2006 MPC           M.P.E.C. 2006-B51

Read MPEC 2006-B50 Read MPEC 2006-B52


Our Web policy. Index to the CBAT/MPC/ICQ pages.


Valid HTML 4.01!